Time,TemperatureF,DewpointF,PressureIn,WindDirection,WindDirectionDegrees,WindSpeedMPH,WindSpeedGustMPH,Humidity,HourlyPrecipIn,Conditions,Clouds,dailyrainin,SoftwareType,DateUTC
2013-05-16 00:01:00,36.0,32.0,-100.00,WSW,251,-999.0,-999.0,85,-99.99,,,-99.99,,2013-05-16 06:01:00,
2013-05-16 00:12:00,37.0,33.0,-100.00,WSW,256,0.0,-999.0,85,-99.99,,,-99.99,,2013-05-16 06:12:00,
2013-05-16 00:22:00,38.0,34.0,-100.00,WSW,256,0.0,11.0,85,-99.99,,,-99.99,,2013-05-16 06:22:00,
2013-05-16 00:33:00,38.0,34.0,-100.00,WSW,256,3.0,10.0,85,-99.99,,,-99.99,,2013-05-16 06:33:00,
2013-05-16 00:43:00,38.0,34.0,-100.00,SW,234,9.0,10.0,85,-99.99,,,-99.99,,2013-05-16 06:43:00,
2013-05-16 00:52:00,39.0,31.0,-100.00,WSW,251,8.0,15.0,74,-99.99,,,-99.99,,2013-05-16 06:52:00,
2013-05-16 01:02:00,41.0,29.0,-100.00,SW,234,7.0,16.0,64,-99.99,,,-99.99,,2013-05-16 07:02:00,
2013-05-16 01:12:00,41.0,29.0,-100.00,West,268,9.0,16.0,64,-99.99,,,-99.99,,2013-05-16 07:12:00,
2013-05-16 01:24:00,41.0,30.0,-100.00,West,268,9.0,18.0,67,-99.99,,,-99.99,,2013-05-16 07:24:00,
2013-05-16 01:34:00,40.0,31.0,-100.00,WSW,239,4.0,6.0,72,-99.99,,,-99.99,,2013-05-16 07:34:00,
2013-05-16 01:44:00,40.0,31.0,-100.00,WSW,239,4.0,6.0,72,-99.99,,,-99.99,,2013-05-16 07:44:00,
2013-05-16 01:54:00,38.0,31.0,-100.00,WSW,239,4.0,8.0,78,-99.99,,,-99.99,,2013-05-16 07:54:00,
2013-05-16 02:03:00,38.0,32.0,-100.00,WSW,239,4.0,8.0,78,-99.99,,,-99.99,,2013-05-16 08:03:00,
2013-05-16 02:13:00,38.0,32.0,-100.00,WSW,239,4.0,8.0,78,-99.99,,,-99.99,,2013-05-16 08:13:00,
2013-05-16 02:23:00,36.0,31.0,-100.00,WSW,239,4.0,4.0,83,-99.99,,,-99.99,,2013-05-16 08:23:00,
2013-05-16 02:34:00,36.0,31.0,-100.00,WSW,239,4.0,4.0,82,-99.99,,,-99.99,,2013-05-16 08:34:00,
2013-05-16 02:45:00,36.0,31.0,-100.00,WSW,239,4.0,4.0,82,-99.99,,,-99.99,,2013-05-16 08:45:00,
2013-05-16 02:54:00,37.0,32.0,-100.00,WSW,239,4.0,4.0,82,-99.99,,,-99.99,,2013-05-16 08:54:00,
2013-05-16 03:04:00,37.0,31.0,-100.00,WSW,239,4.0,14.0,80,-99.99,,,-99.99,,2013-05-16 09:04:00,
2013-05-16 03:14:00,37.0,31.0,-100.00,WSW,256,1.0,14.0,80,-99.99,,,-99.99,,2013-05-16 09:14:00,
2013-05-16 03:24:00,38.0,32.0,-100.00,WSW,256,1.0,12.0,80,-99.99,,,-99.99,,2013-05-16 09:24:00,
2013-05-16 03:35:00,37.0,32.0,-100.00,SSE,160,4.0,12.0,84,-99.99,,,-99.99,,2013-05-16 09:35:00,
2013-05-16 03:45:00,37.0,32.0,-100.00,SSE,160,4.0,12.0,84,-99.99,,,-99.99,,2013-05-16 09:45:00,
2013-05-16 03:55:00,37.0,32.0,-100.00,SSE,160,4.0,7.0,83,-99.99,,,-99.99,,2013-05-16 09:55:00,
2013-05-16 04:05:00,36.0,31.0,-100.00,SSE,160,4.0,4.0,83,-99.99,,,-99.99,,2013-05-16 10:05:00,
2013-05-16 04:15:00,36.0,31.0,-100.00,SSE,160,4.0,4.0,83,-99.99,,,-99.99,,2013-05-16 10:15:00,
2013-05-16 04:24:00,36.0,31.0,-100.00,SSE,160,4.0,4.0,84,-99.99,,,-99.99,,2013-05-16 10:24:00,
2013-05-16 04:36:00,39.0,30.0,-100.00,SSE,160,4.0,7.0,71,-99.99,,,-99.99,,2013-05-16 10:36:00,
2013-05-16 04:45:00,38.0,29.0,-100.00,SSE,160,4.0,7.0,71,-99.99,,,-99.99,,2013-05-16 10:45:00,
2013-05-16 04:56:00,37.0,31.0,-100.00,SSE,160,4.0,4.0,79,-99.99,,,-99.99,,2013-05-16 10:56:00,
2013-05-16 05:05:00,37.0,30.0,-100.00,SSE,160,4.0,7.0,78,-99.99,,,-99.99,,2013-05-16 11:05:00,
2013-05-16 05:14:00,37.0,30.0,-100.00,SSE,160,4.0,7.0,78,-99.99,,,-99.99,,2013-05-16 11:14:00,
2013-05-16 05:25:00,36.0,29.0,-100.00,SSE,160,4.0,6.0,75,-99.99,,,-99.99,,2013-05-16 11:25:00,
2013-05-16 05:35:00,39.0,27.0,-100.00,SSE,160,-999.0,8.0,64,-99.99,,,-99.99,,2013-05-16 11:35:00,
2013-05-16 05:46:00,39.0,27.0,-100.00,SSE,160,-999.0,8.0,64,-99.99,,,-99.99,,2013-05-16 11:46:00,
2013-05-16 05:56:00,39.0,27.0,-100.00,SSE,160,-999.0,7.0,63,-99.99,,,-99.99,,2013-05-16 11:56:00,
2013-05-16 06:06:00,39.0,26.0,-100.00,SSE,160,-999.0,1.0,61,-99.99,,,-99.99,,2013-05-16 12:06:00,
2013-05-16 06:13:00,38.0,25.0,-100.00,SSE,160,-999.0,1.0,61,-99.99,,,-99.99,,2013-05-16 12:13:00,
2013-05-16 06:23:00,36.0,28.0,-100.00,SSE,160,-999.0,1.0,73,-99.99,,,-99.99,,2013-05-16 12:23:00,
2013-05-16 06:35:00,36.0,27.0,-100.00,SSE,160,-999.0,1.0,72,-99.99,,,-99.99,,2013-05-16 12:35:00,
2013-05-16 06:45:00,36.0,27.0,-100.00,SSE,160,-999.0,1.0,72,-99.99,,,-99.99,,2013-05-16 12:45:00,
2013-05-16 06:53:00,37.0,29.0,-100.00,SSE,160,-999.0,1.0,72,-99.99,,,-99.99,,2013-05-16 12:53:00,
2013-05-16 07:04:00,35.0,28.0,-100.00,SSE,160,-999.0,-999.0,77,-99.99,,,-99.99,,2013-05-16 13:04:00,
2013-05-16 07:12:00,35.0,28.0,-100.00,SSE,160,-999.0,-999.0,77,-99.99,,,-99.99,,2013-05-16 13:12:00,
2013-05-16 07:26:00,40.0,31.0,-100.00,SSE,160,-999.0,-999.0,71,-99.99,,,-99.99,,2013-05-16 13:26:00,
2013-05-16 07:35:00,38.0,32.0,-100.00,SSE,160,-999.0,-999.0,79,-99.99,,,-99.99,,2013-05-16 13:35:00,
2013-05-16 07:43:00,38.0,32.0,-100.00,SSE,160,-999.0,-999.0,79,-99.99,,,-99.99,,2013-05-16 13:43:00,
2013-05-16 07:55:00,38.0,32.0,-100.00,SSE,160,-999.0,-999.0,79,-99.99,,,-99.99,,2013-05-16 13:55:00,
2013-05-16 08:05:00,40.0,28.0,-100.00,SSE,160,-999.0,-999.0,64,-99.99,,,-99.99,,2013-05-16 14:05:00,
2013-05-16 08:16:00,44.0,30.0,-100.00,SSE,160,-999.0,-999.0,58,-99.99,,,-99.99,,2013-05-16 14:16:00,
2013-05-16 08:23:00,45.0,28.0,-100.00,SSE,160,-999.0,9.0,52,-99.99,,,-99.99,,2013-05-16 14:23:00,
2013-05-16 08:37:00,46.0,29.0,-100.00,SSE,160,-999.0,9.0,52,-99.99,,,-99.99,,2013-05-16 14:37:00,
2013-05-16 08:47:00,48.0,29.0,-100.00,SSE,160,-999.0,8.0,49,-99.99,,,-99.99,,2013-05-16 14:47:00,
2013-05-16 08:55:00,48.0,30.0,-100.00,SSE,160,-999.0,12.0,50,-99.99,,,-99.99,,2013-05-16 14:55:00,
2013-05-16 09:08:00,49.0,31.0,-100.00,West,274,0.0,12.0,50,-99.99,,,-99.99,,2013-05-16 15:08:00,
2013-05-16 09:17:00,49.0,30.0,-100.00,West,274,0.0,15.0,48,-99.99,,,-99.99,,2013-05-16 15:17:00,
2013-05-16 09:28:00,51.0,30.0,-100.00,West,274,0.0,14.0,45,-99.99,,,-99.99,,2013-05-16 15:28:00,
2013-05-16 09:40:00,49.0,28.0,-100.00,WNW,285,3.0,14.0,45,-99.99,,,-99.99,,2013-05-16 15:40:00,
2013-05-16 09:50:00,48.0,29.0,-100.00,WNW,285,3.0,18.0,49,-99.99,,,-99.99,,2013-05-16 15:50:00,
2013-05-16 10:00:00,49.0,29.0,-100.00,SE,142,5.0,10.0,46,-99.99,,,-99.99,,2013-05-16 16:00:00,
2013-05-16 10:09:00,50.0,30.0,-100.00,SE,142,5.0,10.0,46,-99.99,,,-99.99,,2013-05-16 16:09:00,
2013-05-16 10:20:00,51.0,31.0,-100.00,SE,142,5.0,12.0,47,-99.99,,,-99.99,,2013-05-16 16:20:00,
2013-05-16 10:30:00,51.0,30.0,-100.00,WNW,285,3.0,13.0,44,-99.99,,,-99.99,,2013-05-16 16:30:00,
2013-05-16 10:40:00,51.0,-99.9,-100.00,SW,228,4.0,13.0,44,-99.99,,,-99.99,,2013-05-16 16:40:00,
2013-05-16 10:50:00,51.0,29.0,-100.00,West,279,9.0,15.0,43,-99.99,,,-99.99,,2013-05-16 16:50:00,
2013-05-16 11:00:00,50.0,28.0,-100.00,WNW,285,9.0,20.0,43,-99.99,,,-99.99,,2013-05-16 17:00:00,
2013-05-16 11:10:00,50.0,28.0,-100.00,West,268,9.0,20.0,43,-99.99,,,-99.99,,2013-05-16 17:10:00,
2013-05-16 11:20:00,51.0,29.0,-100.00,SSW,199,7.0,17.0,42,-99.99,,,-99.99,,2013-05-16 17:20:00,
2013-05-16 11:31:00,53.0,29.0,-100.00,WSW,256,5.0,12.0,39,-99.99,,,-99.99,,2013-05-16 17:31:00,
2013-05-16 11:40:00,52.0,28.0,-100.00,WSW,256,5.0,12.0,39,-99.99,,,-99.99,,2013-05-16 17:40:00,
2013-05-16 11:50:00,53.0,-99.9,-100.00,SSE,160,5.0,0.0,40,-99.99,,,-99.99,,2013-05-16 17:50:00,
2013-05-16 12:00:00,53.0,-99.9,-100.00,SSE,160,5.0,13.0,40,-99.99,,,-99.99,,2013-05-16 18:00:00,
2013-05-16 12:10:00,54.0,30.0,-100.00,SSE,160,5.0,13.0,40,-99.99,,,-99.99,,2013-05-16 18:10:00,
2013-05-16 12:20:00,54.0,29.0,-100.00,North,359,3.0,3.0,38,-99.99,,,-99.99,,2013-05-16 18:20:00,
2013-05-16 12:30:00,-999.0,-99.9,-100.00,North,359,3.0,12.0,44,-99.99,,,-99.99,,2013-05-16 18:30:00,
2013-05-16 12:40:00,-999.0,-99.9,-100.00,North,359,3.0,12.0,44,-99.99,,,-99.99,,2013-05-16 18:40:00,
2013-05-16 12:50:00,-999.0,-99.9,-100.00,North,359,3.0,12.0,39,-99.99,,,-99.99,,2013-05-16 18:50:00,
2013-05-16 13:00:00,-999.0,-99.9,-100.00,ESE,103,2.0,8.0,38,-99.99,,,-99.99,,2013-05-16 19:00:00,
2013-05-16 13:10:00,53.0,28.0,-100.00,ESE,103,2.0,9.0,38,-99.99,,,-99.99,,2013-05-16 19:10:00,
2013-05-16 13:20:00,53.0,28.0,-100.00,ESE,103,2.0,9.0,38,-99.99,,,-99.99,,2013-05-16 19:20:00,
2013-05-16 13:30:00,54.0,27.0,-100.00,ESE,103,2.0,9.0,35,-99.99,,,-99.99,,2013-05-16 19:30:00,
2013-05-16 13:40:00,54.0,-99.9,-100.00,ESE,103,2.0,9.0,35,-99.99,,,-99.99,,2013-05-16 19:40:00,
2013-05-16 13:50:00,-999.0,-99.9,-100.00,ESE,103,2.0,8.0,35,-99.99,,,-99.99,,2013-05-16 19:50:00,
2013-05-16 14:10:00,-999.0,-99.9,-100.00,NE,46,1.0,8.0,38,-99.99,,,-99.99,,2013-05-16 20:10:00,
2013-05-16 14:20:00,54.0,-99.9,-100.00,NE,46,1.0,8.0,38,-99.99,,,-99.99,,2013-05-16 20:20:00,
2013-05-16 14:40:00,-999.0,-99.9,-100.00,East,97,10.0,13.0,34,-99.99,,,-99.99,,2013-05-16 20:40:00,
2013-05-16 14:50:00,55.0,28.0,-100.00,WSW,251,4.0,13.0,34,-99.99,,,-99.99,,2013-05-16 20:50:00,
2013-05-16 15:00:00,48.0,28.0,-100.00,West,274,7.0,19.0,46,-99.99,,,-99.99,,2013-05-16 21:00:00,
2013-05-16 15:10:00,45.0,-99.9,-100.00,West,274,9.0,20.0,61,-99.99,,,-99.99,,2013-05-16 21:10:00,
2013-05-16 15:20:00,44.0,-99.9,-100.00,SSW,194,12.0,20.0,61,-99.99,,,-99.99,,2013-05-16 21:20:00,
2013-05-16 15:29:00,41.0,32.0,-100.00,West,274,9.0,18.0,72,-99.99,,,-99.99,,2013-05-16 21:29:00,
2013-05-16 15:38:00,44.0,31.0,-100.00,WSW,251,8.0,8.0,60,-99.99,,,-99.99,,2013-05-16 21:38:00,
2013-05-16 15:50:00,44.0,-99.9,-100.00,West,268,7.0,7.0,60,-99.99,,,-99.99,,2013-05-16 21:50:00,
2013-05-16 16:00:00,-999.0,-99.9,-100.00,West,279,10.0,18.0,57,-99.99,,,-99.99,,2013-05-16 22:00:00,
2013-05-16 16:08:00,50.0,30.0,-100.00,WSW,251,6.0,14.0,47,-99.99,,,-99.99,,2013-05-16 22:08:00,
2013-05-16 16:21:00,51.0,31.0,-100.00,WSW,245,9.0,14.0,47,-99.99,,,-99.99,,2013-05-16 22:21:00,
2013-05-16 16:30:00,53.0,30.0,-100.00,WSW,251,8.0,17.0,40,-99.99,,,-99.99,,2013-05-16 22:30:00,
2013-05-16 16:40:00,53.0,29.0,-100.00,WSW,251,10.0,18.0,40,-99.99,,,-99.99,,2013-05-16 22:40:00,
2013-05-16 16:50:00,53.0,29.0,-100.00,WSW,251,8.0,18.0,40,-99.99,,,-99.99,,2013-05-16 22:50:00,
2013-05-16 17:00:00,54.0,29.0,-100.00,West,274,8.0,16.0,38,-99.99,,,-99.99,,2013-05-16 23:00:00,
2013-05-16 17:06:00,55.0,30.0,-100.00,West,274,8.0,13.0,38,-99.99,,,-99.99,,2013-05-16 23:06:00,
2013-05-16 17:16:00,55.0,30.0,-100.00,West,274,4.0,13.0,38,-99.99,,,-99.99,,2013-05-16 23:16:00,
2013-05-16 17:24:00,57.0,31.0,-100.00,West,274,4.0,13.0,36,-99.99,,,-99.99,,2013-05-16 23:24:00,
2013-05-16 17:35:00,55.0,30.0,-100.00,West,262,3.0,9.0,39,-99.99,,,-99.99,,2013-05-16 23:35:00,
2013-05-16 17:45:00,56.0,31.0,-100.00,West,262,3.0,9.0,39,-99.99,,,-99.99,,2013-05-16 23:45:00,
2013-05-16 17:54:00,55.0,30.0,-100.00,West,262,3.0,15.0,38,-99.99,,,-99.99,,2013-05-16 23:54:00,
2013-05-16 18:02:00,53.0,30.0,-100.00,NW,325,3.0,16.0,42,-99.99,,,-99.99,,2013-05-17 00:02:00,
2013-05-16 18:13:00,52.0,29.0,-100.00,SW,217,8.0,16.0,42,-99.99,,,-99.99,,2013-05-17 00:13:00,
2013-05-16 18:22:00,54.0,32.0,-100.00,SW,217,8.0,12.0,42,-99.99,,,-99.99,,2013-05-17 00:22:00,
2013-05-16 18:33:00,51.0,32.0,-100.00,SW,217,8.0,10.0,48,-99.99,,,-99.99,,2013-05-17 00:33:00,
2013-05-16 18:43:00,52.0,33.0,-100.00,SW,217,8.0,10.0,48,-99.99,,,-99.99,,2013-05-17 00:43:00,
2013-05-16 18:52:00,56.0,33.0,-100.00,SW,217,8.0,8.0,42,-99.99,,,-99.99,,2013-05-17 00:52:00,
2013-05-16 19:03:00,52.0,32.0,-100.00,SW,217,8.0,8.0,46,-99.99,,,-99.99,,2013-05-17 01:03:00,
2013-05-16 19:12:00,52.0,32.0,-100.00,SSW,211,1.0,6.0,46,-99.99,,,-99.99,,2013-05-17 01:12:00,
2013-05-16 19:23:00,52.0,32.0,-100.00,SSW,211,1.0,6.0,46,-99.99,,,-99.99,,2013-05-17 01:23:00,
2013-05-16 19:32:00,50.0,30.0,-100.00,SSW,211,1.0,6.0,46,-99.99,,,-99.99,,2013-05-17 01:32:00,
2013-05-16 19:43:00,50.0,30.0,-100.00,SSW,211,1.0,6.0,46,-99.99,,,-99.99,,2013-05-17 01:43:00,
2013-05-16 19:52:00,47.0,31.0,-100.00,SSW,211,1.0,2.0,54,-99.99,,,-99.99,,2013-05-17 01:52:00,
2013-05-16 20:02:00,45.0,31.0,-100.00,SSW,211,1.0,8.0,58,-99.99,,,-99.99,,2013-05-17 02:02:00,
2013-05-16 20:11:00,45.0,31.0,-100.00,SSW,211,1.0,8.0,58,-99.99,,,-99.99,,2013-05-17 02:11:00,
2013-05-16 20:22:00,43.0,31.0,-100.00,SSW,211,1.0,6.0,64,-99.99,,,-99.99,,2013-05-17 02:22:00,
2013-05-16 20:32:00,41.0,31.0,-100.00,SSW,211,1.0,6.0,70,-99.99,,,-99.99,,2013-05-17 02:32:00,
2013-05-16 20:42:00,40.0,31.0,-100.00,SSW,211,1.0,6.0,70,-99.99,,,-99.99,,2013-05-17 02:42:00,
2013-05-16 20:53:00,40.0,31.0,-100.00,SSW,211,1.0,6.0,70,-99.99,,,-99.99,,2013-05-17 02:53:00,
2013-05-16 21:02:00,37.0,29.0,-100.00,SSW,211,1.0,6.0,74,-99.99,,,-99.99,,2013-05-17 03:02:00,
2013-05-16 21:11:00,37.0,29.0,-100.00,SSW,211,-999.0,6.0,74,-99.99,,,-99.99,,2013-05-17 03:11:00,
2013-05-16 21:22:00,36.0,29.0,-100.00,SSW,211,-999.0,-999.0,78,-99.99,,,-99.99,,2013-05-17 03:22:00,
2013-05-16 21:34:00,36.0,27.0,-100.00,SSW,211,-999.0,-999.0,70,-99.99,,,-99.99,,2013-05-17 03:34:00,
2013-05-16 21:43:00,37.0,28.0,-100.00,SSW,211,-999.0,-999.0,70,-99.99,,,-99.99,,2013-05-17 03:43:00,
2013-05-16 21:53:00,38.0,29.0,-100.00,SSW,211,-999.0,-999.0,71,-99.99,,,-99.99,,2013-05-17 03:53:00,
2013-05-16 22:02:00,36.0,28.0,-100.00,SSW,211,-999.0,-999.0,75,-99.99,,,-99.99,,2013-05-17 04:02:00,
2013-05-16 22:13:00,35.0,27.0,-100.00,SSW,211,-999.0,-999.0,75,-99.99,,,-99.99,,2013-05-17 04:13:00,
2013-05-16 22:23:00,35.0,27.0,-100.00,SSW,211,-999.0,-999.0,74,-99.99,,,-99.99,,2013-05-17 04:23:00,
2013-05-16 22:33:00,35.0,27.0,-100.00,SSW,211,-999.0,-999.0,74,-99.99,,,-99.99,,2013-05-17 04:33:00,
2013-05-16 22:43:00,35.0,27.0,-100.00,SSW,211,-999.0,-999.0,74,-99.99,,,-99.99,,2013-05-17 04:43:00,
2013-05-16 22:53:00,37.0,28.0,-100.00,SSW,211,-999.0,-999.0,71,-99.99,,,-99.99,,2013-05-17 04:53:00,
2013-05-16 23:03:00,38.0,28.0,-100.00,SSW,211,-999.0,-999.0,69,-99.99,,,-99.99,,2013-05-17 05:03:00,
2013-05-16 23:14:00,38.0,28.0,-100.00,SSW,211,-999.0,-999.0,69,-99.99,,,-99.99,,2013-05-17 05:14:00,
2013-05-16 23:22:00,37.0,28.0,-100.00,SSW,211,-999.0,4.0,72,-99.99,,,-99.99,,2013-05-17 05:22:00,
2013-05-16 23:32:00,39.0,29.0,-100.00,SSW,211,-999.0,5.0,67,-99.99,,,-99.99,,2013-05-17 05:32:00,
2013-05-16 23:42:00,39.0,29.0,-100.00,SSW,211,-999.0,5.0,67,-99.99,,,-99.99,,2013-05-17 05:42:00,
2013-05-16 23:52:00,38.0,28.0,-100.00,SSW,211,-999.0,1.0,69,-99.99,,,-99.99,,2013-05-17 05:52:00,